Visibility
15.0 15.0 15.0 15.0 15.0 15.0 15.0 15.0 15.0 15.0 15.0 15.0 15.0 15.0 15.0 15.0 15.0 15.0 15.0 15.0 15.0 15.0 15.0 15.0 15.0 15.0 15.0 15.0 15.0 9.4 1.2 1.3 5.6 14.5 1.8 0.3 0.2 0.2 0.1 0.1 0.1 0.1 0.3 12.3
15.0 15.0 15.0 15.0 15.0 15.0 15.0 15.0 15.0 15.0 15.0 15.0 15.0 15.0 15.0 15.0 15.0 15.0 15.0 15.0 15.0 15.0 15.0 15.0 15.0 15.0 15.0 15.0 15.0 10.1 3.1 9.9 8.9 15.0 15.0 11.7 1.6 1.6 0.3 0.2 0.3 0.2 0.2 1.6
15.0 15.0 15.0 15.0 15.0 15.0 15.0 15.0 15.0 15.0 15.0 15.0 6.1 13.2 15.0 15.0 15.0 15.0 15.0 15.0 15.0 15.0 15.0 15.0 15.0 15.0 15.0 15.0 15.0 15.0 15.0 11.6 9.6 2.1 7.8 3.3 1.9 15.0 9.9 11.4 4.1 0.6 0.3 3.6
15.0 15.0 15.0 15.0 15.0 15.0 15.0 15.0 13.1 6.1 0.9 3.7 0.2 14.1 15.0 15.0 15.0 15.0 15.0 15.0 15.0 15.0 15.0 15.0 15.0 15.0 15.0 15.0 15.0 15.0 15.0 15.0 15.0 15.0 15.0 10.2 12.3 15.0 15.0 15.0 15.0 14.8 15.0 15.0
15.0 15.0 15.0 15.0 15.0 15.0 15.0 0.6 0.1 14.9 14.4 15.0 15.0 15.0 15.0 15.0 15.0 15.0 15.0 15.0 15.0 15.0 15.0 15.0 15.0 15.0 15.0 15.0 15.0 15.0 15.0 4.1 15.0 15.0 15.0 15.0 15.0 15.0 15.0 15.0 4.3 3.8 2.6 5.5
15.0 15.0 15.0 15.0 15.0 15.0 7.7 0.1 6.0 15.0 14.2 15.0 13.2 0.4 15.0 15.0 15.0 15.0 15.0 15.0 15.0 15.0 15.0 15.0 15.0 15.0 15.0 15.0 15.0 15.0 15.0 15.0 15.0 15.0 15.0 15.0 11.5 15.0 15.0 15.0 15.0 15.0 15.0 15.0
15.0 15.0 15.0 15.0 15.0 15.0 2.9 0.1 15.0 15.0 4.2 5.4 0.1 15.0 15.0 15.0 15.0 15.0 15.0 15.0 15.0 15.0 15.0 15.0 15.0 15.0 15.0 15.0 15.0 15.0 15.0 15.0 15.0 15.0 15.0 3.7 10.8 15.0 15.0 15.0 15.0 15.0 15.0 15.0
15.0 15.0 15.0 15.0 15.0 15.0 15.0 13.1 15.0 12.9 4.2 12.7 15.0 15.0 15.0 15.0 15.0 15.0 15.0 15.0 15.0 15.0 15.0 15.0 15.0 15.0 15.0 15.0 15.0 15.0 15.0 15.0 15.0 15.0 15.0 14.1 15.0 15.0 15.0 15.0 15.0 15.0 15.0 15.0
15.0 15.0 15.0 15.0 15.0 15.0 15.0 15.0 15.0 15.0 15.0 0.2 0.5 14.3 15.0 15.0 14.3 15.0 15.0 15.0 15.0 15.0 15.0 15.0 15.0 15.0 15.0 15.0 15.0 15.0 15.0 15.0 15.0 15.0 14.7 1.3 0.2 15.0 15.0 15.0 14.1 15.0 15.0 15.0
15.0 15.0 15.0 15.0 15.0 15.0 15.0 15.0 15.0 15.0 4.8 0.4 1.1 1.4 2.1 14.8 11.4 14.0 15.0 15.0 15.0 15.0 15.0 13.8 10.3 10.4 15.0 9.5 5.7 3.8 15.0 15.0 14.3 15.0 1.7 0.2 5.1 15.0 15.0 12.1 0.9 15.0 15.0 15.0
15.0 15.0 15.0 15.0 15.0 15.0 15.0 15.0 15.0 15.0 4.8 0.4 8.1 6.9 6.2 8.4 3.7 1.5 15.0 15.0 15.0 15.0 8.6 11.2 1.8 3.8 2.9 8.7 3.0 11.3 5.0 12.1 8.3 15.0 9.2 0.8 15.0 14.5 4.2 0.2 11.2 15.0 15.0 15.0
15.0 15.0 15.0 15.0 15.0 15.0 15.0 15.0 15.0 15.0 15.0 2.9 14.4 14.6 13.6 0.6 0.2 0.3 5.3 14.1 5.4 1.1 12.7 4.5 2.1 3.3 2.6 4.3 8.6 1.2 14.7 4.5 4.6 14.6 2.5 14.4 15.0 13.6 15.0 15.0 14.2 11.4 4.5 15.0
15.0 15.0 15.0 15.0 15.0 15.0 15.0 15.0 15.0 15.0 15.0 15.0 14.4 15.0 15.0 15.0 15.0 1.8 0.9 0.8 0.6 3.8 13.2 4.7 2.5 2.7 2.9 6.2 6.4 8.0 15.0 3.3 13.5 14.5 8.2 15.0 15.0 15.0 15.0 7.7 14.9 15.0 11.5 2.8
15.0 15.0 15.0 15.0 15.0 15.0 15.0 15.0 15.0 15.0 15.0 15.0 15.0 15.0 15.0 15.0 15.0 15.0 15.0 6.0 1.1 1.0 3.2 4.6 4.1 6.3 2.8 4.2 11.3 13.6 10.1 13.7 5.1 15.0 15.0 15.0 15.0 15.0 15.0 15.0 15.0 6.5 14.0 6.9
15.0 15.0 15.0 15.0 15.0 15.0 15.0 15.0 15.0 15.0 15.0 13.1 7.7 15.0 15.0 15.0 15.0 15.0 15.0 15.0 4.1 4.1 15.0 6.3 2.2 1.3 7.6 2.7 13.3 2.4 0.3 0.3 0.6 1.6 0.3 0.1 12.8 15.0 12.1 3.2 12.7 8.9 3.7 4.4
15.0 15.0 15.0 15.0 15.0 15.0 15.0 15.0 15.0 15.0 15.0 15.0 15.0 15.0 15.0 15.0 15.0 15.0 15.0 15.0 5.2 6.0 14.8 3.1 1.3 1.2 15.0 5.8 1.7 0.1 0.1 0.1 0.1 0.1 0.1 3.4 15.0 15.0 5.5 1.9 14.6 15.0 7.0 1.2
15.0 15.0 15.0 15.0 15.0 15.0 15.0 15.0 15.0 15.0 15.0 15.0 15.0 15.0 15.0 15.0 15.0 15.0 9.7 15.0 4.1 13.5 3.6 2.7 3.7 3.5 15.0 1.3 0.3 0.3 4.9 15.0 15.0 15.0 10.0 11.7 14.4 5.8 8.2 15.0 15.0 15.0 15.0 15.0
15.0 15.0 15.0 15.0 15.0 15.0 15.0 15.0 15.0 15.0 15.0 15.0 15.0 15.0 15.0 15.0 4.8 14.2 7.7 10.9 15.0 8.3 2.5 7.1 3.8 14.7 4.4 0.7 0.8 1.2 15.0 15.0 15.0 15.0 14.1 7.3 15.0 15.0 15.0 15.0 10.9 3.6 6.4 7.7
15.0 15.0 15.0 15.0 15.0 15.0 15.0 15.0 15.0 14.4 15.0 13.4 13.5 0.4 1.7 15.0 3.8 4.1 15.0 8.9 14.0 14.9 13.3 4.8 11.1 1.6 1.2 0.2 0.2 3.2 15.0 2.5 0.3 1.2 15.0 15.0 9.4 14.2 15.0 5.0 4.9 0.8 7.1 14.3
15.0 15.0 15.0 15.0 15.0 15.0 15.0 15.0 15.0 15.0 15.0 14.6 3.8 1.4 0.6 2.2 4.1 14.7 15.0 10.9 2.9 8.0 2.9 8.3 9.8 0.2 0.4 0.2 1.8 15.0 13.9 3.4 1.8 0.5 0.7 0.5 1.0 1.2 1.2 2.1 7.2 1.2 0.7 1.6
15.0 14.8 15.0 15.0 15.0 15.0 15.0 15.0 15.0 14.3 13.0 3.2 0.7 1.4 0.6 0.8 1.2 2.6 0.8 0.7 6.7 13.8 15.0 15.0 0.7 0.4 1.0 1.2 13.3 15.0 15.0 15.0 8.5 3.1 8.7 2.9 1.3 0.3 0.4 0.9 2.2 2.5 1.6 0.5
15.0 15.0 15.0 15.0 15.0 15.0 15.0 13.3 15.0 15.0 10.7 2.7 0.2 0.5 0.5 0.5 0.6 0.6 2.7 2.5 10.6 15.0 4.7 11.6 0.8 0.5 1.4 5.1 15.0 15.0 15.0 9.4 9.4 15.0 11.2 15.0 12.9 10.3 2.0 2.1 0.8 0.7 1.6 1.0
15.0 15.0 15.0 15.0 15.0 15.0 15.0 6.0 15.0 14.1 1.9 0.6 0.9 1.2 0.6 0.6 1.1 1.4 3.5 6.6 5.3 4.3 8.2 2.8 1.6 1.2 1.5 15.0 15.0 15.0 15.0 15.0 15.0 15.0 15.0 15.0 15.0 15.0 11.4 0.4 1.4 0.8 1.6 5.1
15.0 15.0 13.7 0.7 0.4 12.3 5.5 5.5 4.2 4.7 0.7 1.8 1.4 0.9 0.6 1.0 2.0 1.2 13.2 4.1 11.3 15.0 7.0 8.9 6.3 0.6 2.4 15.0 15.0 3.3 4.8 13.1 13.5 14.9 10.1 12.0 8.9 1.7 15.0 15.0 5.7 0.7 0.4 0.6
15.0 15.0 8.2 4.6 7.6 1.2 1.2 0.9 2.4 4.5 1.3 2.4 1.7 1.0 1.5 6.2 15.0 10.0 11.0 15.0 15.0 10.6 5.9 13.7 0.8 1.9 3.6 13.4 6.1 3.6 3.7 3.3 4.4 7.5 3.4 5.2 3.2 3.3 15.0 15.0 15.0 13.8 6.1 7.1
15.0 12.3 10.8 2.1 3.5 4.1 3.4 2.6 4.1 2.1 0.9 0.9 4.5 3.6 15.0 9.6 4.6 15.0 1.4 11.2 12.3 15.0 14.8 4.5 1.7 6.4 13.4 4.0 5.2 8.8 6.8 5.3 5.7 9.1 8.9 8.4 2.0 3.5 11.9 15.0 15.0 6.3 1.4 4.4
9.0 0.4 14.2 6.2 5.5 8.7 4.1 3.8 4.1 0.9 2.1 3.9 9.0 15.0 1.3 5.0 15.0 14.4 4.3 0.3 15.0 15.0 8.8 4.0 10.6 4.2 4.4 6.6 15.0 15.0 6.9 7.5 9.4 8.4 9.2 2.7 3.3 15.0 14.4 1.4 14.2 1.6 2.6 2.2